Flag for Bosnia-Herzegovina Weather past 2 weeks in Sarajevo, Bosnia-Herzegovina

Now
46 °F

Cool.


Feels Like: 44 °F
Forecast: 28 / 51 °F
Wind: 5 mph from Northeast

Location: Sarajevo / Butmir

Current Time: Mar 3, 2015 at 5:47:25 PM

Latest Report: Mar 3, 2015 at 5:00 PM


Visibility: N/A

Pressure: 30.24 "Hg

Humidity: 43%

Dew point: 25 °F

Location of SarajevoLocation

Historic Weather in Sarajevo — Graph

°F

Sarajevo temperature yesterday

Maximum temperature yesterday: 55 °F (at 12:30 PM)
Minimum temperature yesterday: 34 °F (at 2:00 AM)
Average temperature yesterday: 45 °F

Past Weeks' High & Low Weather Summary

 TemperatureHumidityPressure
High59 °F (Feb 23, 1:00 PM)100% (Feb 17, 4:00 AM)30.66 "Hg (Feb 17, 4:00 AM)
Low16 °F (Feb 19, 6:00 AM)20% (Feb 20, 3:30 PM)29.56 "Hg (Feb 22, 2:30 PM)
Average40 °F74%30.02 "Hg
* Reported Feb 16 4:00 PM — Mar 3 4:30 PM, Sarajevo, Weather by CustomWeather, © 2015

Note: Actual official high and low records may vary slightly from our data, if they occured in-between our weather recording intervals... More about our weather records

Advertising

Sarajevo weather history for previous 24 hours

 ConditionsComfort  
Time TempWeatherWind HumidityBarometerVisibility
4:30 PM
Tue, Mar 3
46 °FScattered clouds.2 mph40%30.24 "HgN/A
4:00 PM48 °FPartly sunny.6 mph37%30.24 "HgN/A
3:30 PM50 °FScattered clouds.5 mph43%30.24 "HgN/A
3:00 PM48 °FPartly sunny.2 mph37%30.24 "HgN/A
2:30 PM50 °FScattered clouds.5 mph37%30.21 "HgN/A
2:00 PM48 °FCool.6 mph54%30.21 "Hg0 mi
1:30 PM50 °FScattered clouds.1 mph50%30.21 "HgN/A
1:00 PM46 °FBroken clouds.2 mph57%30.21 "HgN/A
12:30 PM50 °FScattered clouds.2 mph58%30.24 "HgN/A
12:00 PM46 °FBroken clouds.3 mph62%30.24 "HgN/A
11:30 AM46 °FBroken clouds.1 mph62%30.24 "HgN/A
11:00 AM45 °FPartly sunny.3 mph66%30.24 "HgN/A
10:30 AM45 °FPassing clouds.2 mph76%30.24 "HgN/A
10:00 AM43 °FScattered clouds.1 mph81%30.21 "HgN/A
9:30 AM41 °FScattered clouds.1 mph87%30.21 "HgN/A
9:00 AM41 °FScattered clouds.1 mph93%30.21 "Hg5 mi
8:30 AM39 °FScattered clouds.1 mph100%30.18 "Hg4 mi
8:00 AM37 °FScattered clouds.2 mph93%30.18 "Hg4 mi
7:30 AM37 °FScattered clouds.2 mph93%30.15 "HgN/A
7:00 AM37 °FScattered clouds.2 mph93%30.12 "HgN/A
6:30 AM37 °FPartly sunny.2 mph93%30.12 "HgN/A
6:00 AM37 °FPassing clouds.3 mph100%30.09 "HgN/A
5:30 AM37 °FPassing clouds.3 mph100%30.09 "HgN/A
5:00 AM37 °FPassing clouds.3 mph100%30.07 "HgN/A
4:00 AM37 °FLight rain. Partly cloudy.2 mph100%30.07 "HgN/A
3:00 AM39 °FPartly cloudy.5 mph93%30.04 "HgN/A
2:00 AM39 °FRain. Passing clouds.8 mph93%30.07 "HgN/A
1:00 AM41 °FLight rain. Partly cloudy.8 mph87%30.01 "HgN/A
12:00 AM43 °FLight rain. Passing clouds.3 mph100%29.95 "Hg4 mi
11:00 PM
Mon, Mar 2
45 °FRain. Passing clouds.2 mph87%29.89 "Hg5 mi
10:00 PM46 °FLight rain. Partly cloudy.3 mph82%29.89 "HgN/A
9:30 PM46 °FPartly cloudy.2 mph82%29.89 "HgN/A
9:00 PM45 °FLight rain. Partly cloudy.3 mph87%29.86 "HgN/A
8:30 PM46 °FLight rain. Partly cloudy.2 mph76%29.86 "HgN/A
8:00 PM46 °FLight rain. Partly cloudy.2 mph76%29.83 "HgN/A
7:30 PM48 °FPassing clouds.1 mph66%29.83 "HgN/A
7:00 PM48 °FPassing clouds.3 mph66%29.83 "HgN/A
6:30 PM50 °FPassing clouds.5 mph62%29.83 "HgN/A
6:00 PM50 °FPassing clouds.7 mph58%29.83 "HgN/A
5:30 PM50 °FScattered clouds.9 mph58%29.83 "HgN/A
5:00 PM50 °FScattered clouds.9 mph58%29.83 "HgN/A
Weather by CustomWeather, © 2015

See weather overviewHow to use our weather pages